Torna al catalogo

METEOR 2-11 DEB

AttivoPO
NORAD 40705·DEBRIS·🇷🇺 Russia

Lanciato Jul 5, 1984 da Plesetsk Cosmodrome

Loading…

Prossimi Passaggi (prossime 24 ore)

TLE

AggiornatoSource: Space-Track

Epoca: Sep 13, 2026, 09:34 UTC

1 40705U 84072G   26256.39887725  .00001839  00000-0  12775-2 0  9992
2 40705  82.5165 295.1887 0031790 141.8535 218.4892 13.98110381599666

Traccia METEOR 2-11 DEB in tempo reale con AllMySat

Download on the App Store